GFSFLT2_500_rhum_096.txt.gz
RH
18 16 16 15 14 10 4 6 11 14 24 56 52 48 51 72 94 85 94 95 96 95 96 96 88 77 54 86 70 30 46 75
20 18 19 17 16 12 5 5 13 19 23 30 66 85 95 89 96 93 91 95 92 90 96 96 96 94 82 82 59 29 71 64
25 20 21 20 17 15 8 5 13 18 21 26 41 47 44 45 49 57 80 91 90 96 97 97 97 97 96 83 67 26 46 27
29 23 22 22 19 17 14 6 12 13 17 22 22 40 56 49 62 73 64 83 78 90 97 97 98 98 90 93 68 59 21 22
30 28 22 22 22 20 15 7 9 13 12 14 17 17 16 16 33 62 67 71 73 90 97 98 97 93 77 88 86 27 31 56
30 32 23 22 22 22 17 8 9 14 13 14 15 15 20 18 21 73 73 72 70 82 95 97 97 78 95 90 77 56 59 67
27 34 29 22 19 23 20 9 7 14 14 15 15 16 25 21 22 72 76 70 78 80 97 97 94 84 94 93 87 83 78 75
26 32 33 31 24 21 24 10 7 12 15 16 16 19 20 14 35 76 80 73 75 82 97 97 95 86 88 88 96 94 58 54
26 26 32 36 30 22 25 11 7 10 15 17 14 14 14 24 62 81 82 73 61 91 97 96 84 84 73 70 89 76 76 87
25 26 29 37 37 25 25 14 7 9 11 13 14 10 13 43 83 95 90 88 63 88 96 96 90 79 70 67 92 85 86 85
25 24 28 39 44 30 27 19 7 9 12 12 14 9 22 61 94 94 88 88 79 96 97 96 94 69 57 48 66 75 71 82
26 26 28 37 48 35 30 26 7 10 12 15 12 10 64 72 97 96 97 98 94 96 96 97 96 97 77 52 58 63 75 84
28 28 30 34 48 43 33 28 8 10 13 13 10 18 73 92 97 97 97 98 97 96 97 97 94 84 73 65 65 69 73 84
28 29 31 34 46 45 38 30 9 10 13 10 9 40 65 96 96 96 93 96 97 94 96 93 95 91 81 92 78 82 89 94
30 32 35 36 42 44 40 32 10 11 11 10 12 59 78 98 97 99 99 96 96 96 95 95 92 90 73 78 77 83 96 94
28 35 39 43 44 46 46 34 13 11 11 9 14 64 72 97 95 97 99 98 97 97 96 88 72 70 66 70 90 83 95 92
24 37 44 49 47 48 54 38 18 11 10 10 10 50 72 75 96 97 95 96 96 97 85 78 87 92 99 96 93 93 94 99
26 41 44 50 50 50 52 48 23 11 10 9 10 17 54 69 86 96 96 96 94 95 89 97 97 98 97 97 97 98 97 96
27 49 47 55 60 54 55 53 29 11 9 9 11 11 21 51 66 96 97 97 96 96 96 96 97 97 97 96 96 94 93 95
31 55 58 66 64 58 62 58 32 12 8 11 11 13 12 17 29 57 67 97 97 97 97 96 97 96 96 95 95 93 91 93

GFSFLT2_500_rhum_102.txt.gz
RH
8 11 13 13 12 12 12 11 10 8 4 3 15 25 23 41 46 41 41 42 46 68 90 94 96 96 95 80 88 63 54 60
9 11 13 13 13 14 14 12 11 10 6 4 5 18 24 28 57 77 79 66 75 84 64 73 95 96 95 98 92 68 56 67
10 10 15 16 13 15 17 14 12 12 9 6 4 26 56 52 49 55 54 55 55 57 61 76 89 96 96 96 91 72 37 78
13 10 14 16 16 15 18 18 15 14 11 7 6 10 33 42 58 51 42 52 33 38 58 61 86 94 94 96 83 76 36 79
19 14 13 14 19 17 21 22 20 16 14 10 7 14 28 43 52 58 48 30 24 44 68 68 78 81 92 97 95 89 63 68
22 19 15 13 17 20 22 27 25 22 17 14 7 14 24 32 33 52 55 60 59 64 81 66 68 78 91 96 94 86 81 68
22 21 19 14 14 20 20 27 30 27 21 19 10 5 12 30 32 23 42 58 61 67 81 79 74 82 91 97 91 83 92 63
23 23 21 16 15 18 20 25 31 29 24 24 13 5 7 18 31 26 32 46 62 47 72 83 77 76 83 97 88 94 85 70
24 24 23 20 16 18 19 23 27 32 26 26 18 6 6 7 11 19 19 37 36 44 92 87 78 86 96 96 91 91 71 54
19 26 25 22 18 19 21 21 24 30 29 28 26 8 6 7 9 12 22 37 38 71 93 88 79 92 100 97 92 88 52 65
26 21 27 23 20 20 20 23 24 24 32 28 29 12 6 8 10 12 14 34 52 67 95 93 73 85 100 97 88 90 71 73
24 23 27 24 23 22 21 19 26 25 29 32 26 18 7 7 10 11 11 29 57 92 96 95 82 85 98 96 85 79 77 66
22 22 26 32 28 26 25 21 25 27 29 36 29 23 8 7 10 10 11 47 72 84 95 94 88 72 97 95 79 76 80 65
24 21 24 36 36 29 24 24 25 27 30 40 34 25 10 8 10 10 24 62 63 84 96 96 94 89 87 90 92 79 79 66
25 26 19 31 38 33 27 24 26 26 31 41 38 27 10 10 8 14 34 50 79 97 95 93 98 88 94 91 96 88 88 84
23 25 20 16 39 39 32 26 25 25 32 43 39 30 12 10 8 21 46 79 96 97 97 97 96 95 97 97 96 97 95 92
26 21 22 16 31 35 30 20 25 22 34 46 46 32 12 10 9 13 56 67 97 98 97 95 96 96 99 98 95 96 96 95
25 23 21 16 25 28 22 23 19 21 36 46 50 34 13 9 10 12 47 68 96 94 97 91 95 98 98 96 96 96 95 95
29 27 21 15 21 27 17 25 16 17 38 46 53 36 15 9 11 12 43 70 96 97 96 96 98 96 97 96 97 95 84 76
38 31 22 14 18 24 19 25 20 16 38 47 57 38 16 9 11 12 28 68 96 96 96 96 97 97 97 97 96 86 74 84

GFSFLT2_500_rhum_105.txt.gz
RH
11 7 7 8 8 8 9 11 10 8 8 6 4 3 12 25 33 42 68 52 47 44 50 73 89 93 93 96 92 64 45 48
15 8 8 9 8 9 9 11 11 10 8 8 6 4 7 42 53 38 66 78 77 50 70 82 78 90 96 94 96 96 62 45
17 11 8 11 8 10 11 10 11 12 11 9 9 6 7 25 49 53 50 48 55 54 53 54 62 72 79 93 97 90 95 80
19 14 11 12 11 11 13 12 11 13 15 13 10 9 8 12 42 54 57 60 51 54 35 32 57 76 82 89 98 95 91 84
21 18 16 13 14 12 13 14 12 13 17 18 14 12 8 14 30 40 45 55 57 45 44 56 63 64 91 94 94 100 94 92
20 19 18 17 15 14 15 15 14 15 18 22 18 16 12 6 15 30 26 40 52 53 60 60 75 77 92 80 91 92 92 94
22 21 20 19 18 16 17 17 16 17 18 20 21 18 14 6 6 19 29 21 29 37 69 56 64 78 72 83 77 97 96 90
26 24 23 20 21 19 18 19 18 18 20 20 23 19 16 6 6 7 22 28 24 33 58 52 49 76 77 88 97 99 97 96
23 28 27 24 22 22 19 20 20 19 21 21 25 22 19 11 6 7 7 12 25 34 36 68 88 81 82 76 84 98 88 96
26 28 31 28 23 24 22 21 22 20 20 24 25 28 22 18 7 6 7 9 12 46 49 78 87 85 83 78 91 98 96 97
34 31 31 33 25 26 24 22 23 24 22 24 25 30 27 22 14 6 7 11 14 20 59 65 86 89 80 95 98 96 97 96
35 32 29 33 34 28 26 24 24 22 25 25 27 28 34 27 20 8 7 11 12 12 69 62 95 92 82 96 99 93 95 95
34 30 25 26 34 28 25 25 26 21 24 26 29 30 38 32 23 10 8 11 10 10 44 78 84 83 82 82 99 98 87 95
32 26 23 23 27 33 27 27 32 28 23 29 28 30 36 37 25 10 10 10 10 23 60 81 79 84 89 78 95 97 87 97
28 23 22 26 28 34 32 32 31 32 31 28 24 30 38 40 27 10 8 10 16 52 61 89 92 98 88 78 86 94 97 91
27 29 30 29 29 28 29 34 31 36 34 31 27 30 35 41 30 10 7 9 12 46 76 98 97 97 83 81 77 86 96 94
38 32 30 41 32 36 23 23 24 27 33 30 29 34 38 43 32 12 8 8 12 40 76 96 97 96 85 83 82 94 96 94
56 42 34 26 25 30 28 24 19 22 29 28 32 32 40 46 35 12 7 8 17 56 87 98 97 96 96 88 86 97 97 97
58 47 40 30 22 24 24 20 18 24 24 28 30 33 36 49 36 12 7 8 18 67 95 96 97 96 97 87 93 97 96 96
57 52 44 36 32 31 33 19 16 19 22 32 30 30 38 48 37 13 6 9 14 65 89 96 98 98 96 94 97 96 96 96

GFSFLT2_500_rhum_111.txt.gz
RH
25 22 20 18 17 16 15 14 11 9 10 10 7 7 7 7 6 9 25 43 48 52 65 66 50 45 74 90 99 96 98 51
26 26 21 19 17 17 16 15 13 11 12 12 11 9 8 8 8 9 20 48 63 59 49 57 74 65 59 60 88 98 98 66
28 25 21 19 19 18 16 15 15 14 14 13 12 13 12 10 10 10 13 32 50 52 48 36 44 38 40 74 85 100 96 93
30 30 24 20 19 18 16 15 17 18 16 14 13 14 13 15 12 13 9 12 31 38 47 59 57 32 33 52 68 86 97 93
34 30 30 22 23 20 18 16 16 18 19 17 14 14 13 14 16 14 14 7 8 23 36 54 50 49 56 61 59 82 93 97
40 30 34 28 26 24 21 18 18 19 20 20 18 16 14 16 17 17 16 12 5 11 24 27 38 44 63 65 75 69 94 97
42 45 42 33 27 28 22 19 19 20 21 22 20 20 17 17 19 18 17 17 12 5 10 20 17 24 34 68 72 66 84 98
42 55 49 37 31 30 27 23 22 21 22 23 23 22 22 19 20 19 19 19 18 10 5 5 11 18 24 45 45 71 79 97
49 61 55 52 33 33 33 27 26 25 24 25 25 24 24 22 21 21 20 20 20 19 9 5 5 6 23 34 71 79 71 85
54 60 57 55 48 35 37 35 30 28 28 27 26 25 26 25 22 22 22 22 25 23 17 7 5 5 5 32 73 78 86 78
56 60 62 55 58 48 38 38 33 32 31 29 28 26 27 26 24 22 22 22 26 28 25 13 6 5 5 9 46 74 88 81
63 67 66 57 60 51 46 40 37 35 36 34 29 28 27 27 26 24 23 24 24 30 31 18 6 6 6 14 59 63 92 96
64 70 59 61 56 53 48 45 47 43 39 37 32 28 26 30 29 26 24 25 23 30 34 21 8 7 10 24 56 51 78 99
58 53 68 63 59 56 50 44 45 42 38 37 34 28 33 34 30 28 26 26 23 28 35 25 9 7 7 40 54 50 70 97
57 50 56 61 60 48 51 44 40 44 43 41 39 36 36 34 31 31 28 28 27 28 34 30 13 6 8 22 31 49 62 77
56 58 56 62 60 51 50 54 41 38 35 33 34 36 38 39 36 35 31 28 28 25 30 33 20 6 6 13 24 56 89 72
73 70 65 63 66 59 52 62 80 47 42 38 43 34 38 43 42 40 35 29 27 19 23 32 22 6 9 13 23 60 90 97
64 75 78 69 70 62 54 57 88 96 66 70 49 42 45 47 47 46 39 31 30 22 23 31 24 6 8 17 56 91 90 96
76 75 77 77 72 81 81 74 68 53 95 78 54 53 50 48 47 46 40 33 30 24 22 32 26 7 8 70 92 89 79 98
59 50 58 73 66 72 84 72 73 64 64 97 80 49 45 42 41 42 38 35 32 29 23 33 28 8 9 33 76 96 85 97

GFSFLT2_500_rhum_114.txt.gz
RH
26 29 37 29 22 19 14 12 14 13 11 10 9 9 9 7 6 6 7 10 31 53 44 48 56 67 72 84 85 95 95 95
24 28 30 27 24 19 16 14 15 14 13 11 10 10 11 12 10 7 6 8 24 26 37 39 44 45 56 64 64 80 90 96
29 26 30 30 26 20 18 17 16 15 15 14 12 12 12 13 12 11 8 7 8 15 26 31 50 52 45 36 42 90 98 97
32 32 32 34 30 21 18 18 16 15 15 16 15 14 15 14 13 12 12 9 14 5 8 20 46 58 52 35 58 77 97 97
32 37 40 35 33 27 22 20 21 20 18 18 17 17 17 16 14 14 12 12 10 8 4 8 21 44 52 55 59 60 74 92
33 42 40 37 36 35 30 24 22 22 19 20 19 19 18 18 16 16 15 13 15 12 9 4 10 21 31 33 40 60 69 62
35 39 41 43 45 40 37 30 26 24 20 21 21 22 21 21 19 18 16 16 17 16 13 10 4 7 16 20 27 47 56 60
39 37 42 46 52 45 38 36 30 27 25 23 23 23 23 23 22 21 18 20 21 19 16 15 12 5 5 11 24 37 41 47
47 38 40 48 55 51 43 39 35 31 28 26 25 26 25 25 24 22 21 20 21 20 20 18 16 13 6 5 6 27 56 55
53 42 39 53 59 54 53 46 40 34 33 31 28 29 27 26 26 26 22 22 20 19 20 18 20 20 12 5 4 7 41 83
54 46 42 56 60 54 53 55 47 36 32 34 34 32 30 28 26 27 25 22 23 22 18 20 22 22 16 5 4 5 11 80
61 52 51 58 58 58 53 53 55 48 40 38 37 35 33 31 27 27 28 25 24 23 19 19 25 23 19 6 8 9 31 65
55 57 57 57 58 64 58 50 58 54 49 42 40 39 37 34 29 28 31 28 26 26 23 22 28 27 23 12 12 9 35 49
59 61 59 62 66 64 61 59 53 57 54 47 43 42 41 38 29 30 34 32 27 27 26 24 30 29 28 16 6 7 49 58
66 94 71 67 76 70 68 67 57 51 56 52 49 48 43 38 32 32 37 35 30 29 28 23 30 32 30 20 6 6 16 32
80 93 70 71 69 68 73 74 67 64 56 58 61 57 44 40 38 36 38 40 37 34 30 24 26 31 32 23 8 6 10 15
85 88 78 65 63 69 77 73 93 89 64 59 50 48 38 48 43 40 42 43 40 39 35 27 27 30 33 27 9 7 15 32
79 90 86 49 66 73 78 75 81 94 90 92 82 46 60 63 55 45 46 48 44 43 38 29 24 30 31 28 10 8 48 76
80 86 81 86 84 86 83 86 82 96 94 100 98 89 67 64 61 42 47 53 45 40 47 38 23 26 27 28 13 8 22 64
74 90 95 94 91 86 84 94 96 96 85 72 78 95 98 89 59 48 46 47 38 33 35 29 26 21 24 28 17 8 15 52

GFSFLT2_500_rhum_117.txt.gz
RH
33 28 29 32 29 28 30 21 18 17 14 10 10 8 7 7 7 8 7 12 8 20 24 30 32 37 56 66 63 64 91 94
31 32 31 33 31 30 26 21 18 16 16 13 12 11 8 7 6 8 8 8 7 7 9 20 24 36 41 40 41 72 79 89
34 33 34 32 33 31 27 23 19 16 16 15 15 14 11 8 7 8 9 9 8 14 6 6 15 31 55 51 54 74 94 95
39 33 33 33 37 34 33 26 21 17 17 17 17 16 14 11 9 9 10 9 9 8 7 4 6 17 43 49 48 59 78 96
43 41 35 33 42 41 39 30 25 20 20 21 19 19 18 15 11 9 11 11 10 11 9 8 4 8 26 46 41 49 59 67
42 40 36 33 40 44 42 37 30 25 22 22 20 20 21 18 15 13 11 11 12 11 10 10 9 4 8 18 24 26 29 58
48 49 42 34 44 44 43 42 36 31 27 24 21 21 22 22 19 16 14 12 12 12 11 12 11 11 6 4 10 15 19 29
50 57 48 34 39 45 47 48 44 37 31 28 24 23 23 24 22 20 18 14 13 13 12 12 13 14 13 10 4 4 14 29
45 49 51 38 41 43 48 52 47 39 36 32 28 25 25 25 26 24 22 19 16 15 14 12 15 14 16 16 10 4 4 4
49 45 51 44 42 44 47 53 51 44 40 36 34 30 28 28 28 26 24 23 20 18 18 15 14 15 18 19 13 5 3 4
53 47 49 56 43 47 48 51 55 54 48 38 37 35 32 31 30 29 26 25 23 20 19 19 15 14 16 22 18 7 6 6
64 57 56 62 47 50 51 51 52 55 56 48 43 40 37 33 33 33 29 27 26 24 21 20 18 12 14 20 22 13 10 11
51 54 58 61 52 48 57 57 54 53 58 57 52 46 41 37 36 37 33 29 27 28 25 22 21 15 13 21 27 18 8 7
57 53 55 54 58 49 61 69 63 55 54 56 56 50 45 41 43 40 36 31 27 32 31 28 26 20 14 16 29 23 11 7
68 65 52 56 54 58 73 73 75 66 63 58 60 59 52 50 48 43 39 34 29 34 37 32 32 27 18 14 22 28 18 7
79 90 81 80 67 72 76 86 91 94 91 90 72 62 58 52 48 47 43 40 33 37 41 36 34 33 25 17 17 26 26 8
98 100 99 90 94 94 80 97 98 97 96 95 94 78 68 57 48 50 54 50 43 44 47 42 36 36 30 21 17 21 25 10
100 100 100 100 95 96 73 89 97 97 96 96 95 86 86 72 59 71 59 52 51 47 43 43 42 40 38 24 20 23 33 16
100 99 100 100 98 100 84 84 95 100 97 95 95 98 88 87 97 90 65 49 54 42 38 36 40 42 41 30 20 18 33 20
100 100 99 98 99 100 89 85 82 98 96 95 93 99 88 75 95 93 69 85 62 66 51 34 37 38 33 29 25 19 29 26

GFSFLT2_500_rhum_120.txt.gz
RH
26 29 33 32 27 29 27 25 27 23 18 13 12 10 10 8 7 7 8 7 9 6 7 10 18 16 31 38 54 61 72 84
34 34 33 31 28 32 31 28 26 24 18 15 11 11 11 10 9 8 7 7 8 7 13 6 9 16 24 40 56 79 93 82
33 40 39 34 31 32 34 33 27 26 20 16 14 12 12 12 11 10 8 8 8 8 7 6 4 7 17 33 48 54 65 95
35 41 34 33 32 32 36 35 32 28 22 18 18 16 21 14 14 12 10 9 8 9 8 7 5 4 12 25 44 40 59 63
34 34 36 32 33 33 34 37 38 33 27 19 20 20 27 17 17 15 14 10 10 9 9 8 7 6 6 9 27 44 36 49
32 33 40 38 34 32 35 39 41 37 32 24 21 21 20 17 19 18 16 15 11 12 10 10 8 8 6 4 5 23 21 39
37 37 38 46 40 33 34 37 44 40 33 31 25 22 20 20 20 20 18 18 15 12 10 11 10 9 9 8 7 3 16 34
40 40 39 38 43 35 33 35 41 43 36 35 29 25 21 23 22 22 21 20 18 14 17 11 12 12 11 11 12 18 16 22
51 45 46 42 39 38 34 37 41 42 44 37 34 29 25 24 24 24 24 23 22 21 16 14 12 13 13 13 14 13 10 15
44 55 46 44 42 42 35 38 42 44 49 43 36 31 29 26 26 27 26 25 23 22 19 16 16 12 13 13 14 14 13 9
32 60 50 48 47 43 39 40 42 44 47 50 40 33 33 31 29 29 29 27 26 25 24 19 18 16 12 13 15 15 15 10
16 38 54 56 57 48 44 37 48 46 44 51 48 42 36 36 33 30 31 32 30 27 26 25 21 19 17 14 13 18 17 12
15 50 60 55 48 44 46 40 50 52 47 54 52 51 43 39 36 33 34 35 35 31 28 26 27 22 23 20 14 19 24 14
12 48 62 67 49 54 59 54 55 59 54 53 54 54 52 48 42 38 38 37 37 36 33 27 31 29 27 26 20 17 24 22
10 37 72 67 67 69 59 63 55 57 58 56 56 53 54 54 51 46 44 42 41 41 39 29 31 34 32 29 29 18 17 24
9 15 66 88 81 70 59 61 57 56 63 65 67 66 64 62 58 56 48 45 45 45 43 34 32 40 37 36 32 28 17 25
8 13 78 100 89 63 58 81 72 69 72 70 77 81 81 67 64 61 54 52 50 54 52 44 38 40 41 40 39 36 24 13
9 13 98 100 95 70 70 84 81 74 83 95 83 93 85 80 70 68 58 63 59 57 58 48 42 40 42 39 42 40 38 16
11 27 100 95 90 76 55 79 96 85 98 100 94 94 96 97 90 85 73 74 63 60 56 46 47 40 33 39 34 38 38 25
27 100 99 96 100 90 100 100 95 96 98 88 89 90 95 94 90 92 97 86 78 83 85 50 48 49 44 38 34 33 34 32